Probability
52 52 58 61 42 42 32 29 29 13 13 23 19 13 16 19 3 3 6 3 0 0 0 0 0 0 0 0 0 0 0 0 0 0 0 3 3 0
65 55 55 52 45 39 39 32 35 32 19 23 23 23 16 6 0 10 6 3 0 0 0 0 0 0 0 0 0 0 0 0 0 0 0 0 0 0
48 48 52 52 42 45 39 32 29 29 23 19 19 19 19 13 6 13 16 10 6 0 0 0 0 0 0 0 0 0 0 0 0 0 0 0 0 0
45 48 45 42 45 42 39 29 26 26 26 19 19 19 13 13 10 16 6 6 10 6 0 0 0 0 0 0 0 0 0 0 0 0 0 0 0 0
42 45 48 39 39 35 35 29 29 23 26 19 19 19 13 10 10 6 6 10 10 3 0 0 0 0 0 0 0 0 0 0 0 0 0 0 0 0
39 35 42 35 35 39 32 32 29 26 23 19 19 19 16 6 6 6 6 10 10 3 3 0 0 0 0 0 0 0 0 0 0 0 0 0 0 0
35 32 26 16 16 13 10 23 26 23 19 19 16 16 10 6 6 6 6 10 10 10 6 6 3 3 0 0 0 0 0 0 0 0 0 0 0 0
35 29 19 10 10 10 6 6 10 16 13 13 16 13 13 10 10 6 6 6 6 10 6 6 6 6 6 6 3 0 0 0 0 0 0 0 0 0
35 32 23 16 10 13 6 6 6 6 3 6 13 13 16 13 10 10 10 6 6 6 6 3 6 6 6 3 3 0 0 0 0 0 0 0 0 0
42 39 32 26 16 13 16 6 6 3 3 3 13 19 16 16 16 10 6 6 6 6 3 3 3 3 6 3 3 3 0 0 0 0 0 0 0 0
26 29 23 26 13 3 6 10 13 16 6 0 3 3 3 3 6 6 6 6 6 6 6 3 3 6 6 3 3 3 0 0 0 0 0 0 0 0
26 26 13 16 10 3 3 13 16 16 13 6 0 0 3 3 0 3 6 3 6 6 6 6 6 10 6 6 3 3 3 0 0 0 0 0 0 0
26 29 19 10 10 3 3 6 13 10 10 6 3 10 6 6 6 3 3 3 3 6 6 10 10 10 3 3 3 3 3 3 0 0 0 0 0 0
32 29 19 6 0 0 0 0 3 3 6 6 3 10 10 6 3 3 3 3 3 0 3 3 6 6 0 0 0 0 0 0 0 0 0 0 0 0
13 6 0 0 0 0 0 0 3 3 3 10 10 6 6 6 3 3 3 3 3 0 0 3 3 3 0 0 0 0 0 0 0 0 0 0 0 0
0 6 0 0 0 0 0 0 0 0 0 0 3 10 3 3 0 0 0 0 0 3 3 3 3 6 3 0 0 0 0 0 0 0 0 0 0 0
6 13 10 10 6 3 3 3 3 3 0 0 3 3 3 3 0 0 0 0 0 0 0 3 6 3 3 0 0 0 0 0 0 0 0 0 0 0
3 13 13 13 13 13 13 6 3 3 3 3 3 3 3 3 3 3 0 0 0 0 0 0 0 0 0 0 0 0 0 0 0 0 0 0 0 0
3 13 16 13 13 10 10 10 10 10 6 3 3 3 3 3 3 3 6 6 0 0 0 0 0 0 0 0 0 0 0 0 0 0 0 0 0 0
10 13 13 13 13 16 10 10 10 6 10 6 6 6 6 6 6 6 6 6 6 0 0 0 0 0 0 0 0 0 0 0 0 0 0 0 0 0
6 13 10 13 16 19 19 16 16 10 10 10 6 6 3 3 3 6 3 3 0 0 0 0 0 0 0 0 0 0 0 0 0 0 0 0 0 0
10 16 13 16 19 19 19 19 16 16 10 10 10 6 3 3 3 3 3 3 0 0 0 0 0 0 0 0 0 0 0 0 0 0 0 0 0 0
13 13 16 19 19 23 23 16 13 13 16 10 6 6 3 3 3 0 0 0 0 0 0 0 0 0 0 0 0 0 0 0 0 0 0 0 0 0
Height
5885 5884 5883 5881 5880 5878 5877 5875 5874 5872 5871 5870 5868 5867 5865 5864 5863 5861 5860 5858 5856 5855 5854 5852 5851 5849 5848 5847 5845 5844 5842 5841 5839 5838 5836 5834 5833 5831
5883 5882 5881 5879 5878 5876 5875 5873 5871 5870 5868 5867 5865 5864 5862 5861 5859 5858 5856 5855 5853 5851 5850 5848 5847 5846 5844 5843 5841 5839 5838 5836 5834 5833 5831 5829 5827 5825
5881 5880 5879 5878 5876 5874 5872 5870 5869 5867 5866 5864 5862 5861 5859 5858 5856 5855 5853 5851 5850 5848 5846 5845 5843 5842 5840 5838 5837 5835 5833 5831 5829 5827 5825 5823 5821 5820
5880 5878 5877 5875 5874 5872 5870 5868 5866 5864 5863 5861 5859 5857 5856 5854 5853 5851 5849 5847 5846 5844 5842 5841 5839 5837 5836 5834 5832 5830 5828 5826 5824 5822 5820 5818 5816 5814
5877 5876 5874 5872 5871 5869 5867 5865 5863 5861 5860 5858 5856 5854 5852 5850 5849 5847 5845 5843 5841 5839 5837 5836 5834 5832 5831 5829 5827 5825 5823 5821 5819 5817 5815 5812 5810 5808
5875 5873 5871 5869 5867 5865 5864 5862 5860 5858 5856 5854 5852 5850 5848 5846 5844 5842 5840 5838 5836 5834 5832 5831 5829 5827 5825 5823 5822 5820 5818 5815 5813 5811 5808 5806 5804 5802
5872 5870 5868 5865 5863 5861 5860 5858 5856 5854 5852 5850 5848 5846 5844 5841 5839 5837 5835 5833 5831 5829 5827 5825 5823 5821 5820 5818 5815 5813 5812 5809 5807 5805 5802 5800 5798 5795
5869 5867 5865 5863 5860 5858 5856 5854 5852 5849 5847 5845 5842 5840 5838 5836 5834 5832 5830 5828 5825 5824 5821 5819 5817 5815 5813 5811 5809 5807 5805 5803 5801 5798 5796 5793 5791 5788
5865 5863 5861 5859 5856 5854 5852 5849 5847 5844 5842 5840 5837 5835 5832 5830 5828 5826 5824 5821 5819 5817 5815 5813 5811 5809 5807 5805 5802 5800 5798 5795 5793 5791 5788 5786 5783 5781
5861 5858 5856 5854 5852 5849 5847 5844 5842 5839 5837 5834 5832 5829 5827 5824 5822 5820 5818 5815 5813 5810 5808 5806 5804 5802 5800 5797 5795 5792 5790 5787 5785 5783 5780 5778 5775 5773
5855 5853 5850 5848 5846 5844 5841 5839 5836 5834 5831 5828 5825 5823 5821 5818 5816 5813 5811 5809 5806 5804 5801 5799 5797 5795 5792 5789 5787 5784 5782 5780 5777 5775 5773 5770 5768 5765
5849 5847 5844 5842 5840 5837 5835 5832 5830 5827 5825 5822 5819 5817 5814 5812 5809 5807 5804 5802 5799 5797 5794 5792 5789 5787 5785 5782 5779 5776 5774 5772 5769 5767 5765 5762 5760 5757
5842 5840 5838 5836 5833 5830 5828 5825 5823 5820 5818 5815 5812 5810 5807 5805 5802 5799 5797 5794 5792 5790 5787 5784 5781 5779 5776 5774 5772 5769 5766 5763 5761 5759 5756 5754 5752 5750
5835 5833 5831 5829 5826 5823 5821 5818 5815 5812 5810 5807 5805 5803 5800 5797 5795 5792 5789 5787 5784 5782 5779 5776 5773 5771 5768 5766 5764 5761 5759 5756 5753 5751 5748 5746 5744 5741
5827 5825 5823 5821 5818 5816 5813 5810 5807 5804 5802 5799 5797 5795 5792 5789 5787 5784 5782 5779 5776 5774 5771 5768 5765 5763 5760 5758 5756 5753 5751 5748 5746 5743 5740 5738 5736 5733
5819 5817 5814 5812 5810 5807 5805 5802 5799 5796 5793 5791 5788 5786 5784 5781 5779 5776 5773 5771 5768 5766 5763 5760 5757 5755 5753 5750 5747 5745 5742 5740 5738 5735 5733 5730 5728 5725
5810 5808 5805 5803 5801 5798 5796 5793 5790 5788 5785 5782 5780 5777 5775 5773 5770 5768 5765 5762 5760 5757 5755 5752 5749 5746 5744 5741 5739 5736 5734 5731 5729 5727 5724 5722 5720 5718
5801 5798 5796 5794 5792 5789 5787 5784 5782 5779 5776 5774 5771 5768 5766 5763 5761 5759 5756 5754 5752 5749 5746 5744 5741 5738 5736 5733 5731 5728 5725 5723 5721 5718 5716 5714 5712 5709
5791 5789 5787 5785 5783 5780 5777 5775 5773 5770 5768 5765 5762 5759 5757 5754 5752 5750 5747 5745 5743 5740 5738 5735 5733 5730 5728 5725 5722 5719 5717 5715 5712 5710 5708 5705 5703 5701
5782 5780 5778 5775 5773 5770 5768 5765 5763 5760 5758 5755 5753 5750 5747 5745 5742 5740 5738 5736 5733 5731 5728 5726 5724 5721 5719 5716 5714 5711 5708 5706 5704 5701 5699 5697 5695 5693
5773 5770 5768 5766 5763 5760 5758 5756 5753 5751 5748 5745 5743 5740 5738 5735 5733 5731 5728 5726 5724 5721 5719 5717 5715 5712 5709 5707 5705 5703 5700 5697 5695 5692 5690 5688 5686 5684
5763 5760 5758 5756 5753 5751 5748 5746 5743 5741 5738 5736 5733 5731 5728 5725 5723 5721 5718 5716 5714 5712 5710 5707 5705 5703 5700 5698 5696 5694 5691 5689 5686 5684 5681 5680 5678 5676
5753 5750 5748 5745 5743 5741 5738 5736 5733 5731 5728 5726 5723 5720 5718 5715 5713 5710 5708 5706 5704 5702 5700 5698 5695 5693 5691 5689 5687 5685 5683 5680 5678 5675 5674 5671 5670 5668
Wind_Speed
11 11 12 12 12 13 14 14 13 13 13 13 14 13 13 13 14 14 15 15 15 14 14 14 15 15 16 16 16 16 17 18 19 19 19 19 19 19
11 11 12 12 12 13 14 14 14 13 14 14 14 13 13 14 14 15 15 15 15 15 15 16 16 16 17 17 17 17 18 18 19 19 20 20 20 20
11 12 12 13 13 14 14 14 15 15 15 15 15 15 15 15 15 16 16 16 16 16 16 16 16 16 16 17 17 18 18 19 20 20 20 21 21 20
12 13 13 14 15 15 15 16 16 15 15 16 16 16 16 16 17 18 18 18 18 17 17 17 18 18 19 19 19 19 20 20 20 20 21 21 21 20
14 14 14 15 15 16 17 17 17 17 17 17 17 17 18 18 19 19 19 20 19 19 18 19 19 20 20 20 21 20 20 20 21 21 22 22 22 22
15 16 16 16 17 17 18 19 19 19 19 19 19 19 19 20 21 21 21 21 20 21 21 21 21 21 21 21 21 21 22 22 22 22 22 23 23 24
17 18 18 19 18 18 18 19 21 21 21 21 21 21 21 21 22 22 22 22 22 22 22 22 22 22 22 22 23 23 23 23 23 24 24 24 24 25
19 19 19 20 20 20 21 21 21 22 22 22 22 22 22 22 23 23 23 24 24 24 24 24 24 23 23 23 24 24 24 24 24 24 25 25 26 26
20 21 21 21 21 22 22 23 22 23 23 23 24 24 24 24 24 24 24 25 26 25 25 25 25 25 25 25 26 26 26 26 26 26 27 27 27 27
22 22 23 23 23 23 24 24 24 24 25 25 24 24 25 25 26 26 26 26 26 25 26 26 26 26 26 26 27 27 27 27 27 27 27 28 27 27
24 24 24 24 24 25 25 25 26 26 26 27 26 26 26 26 26 27 26 27 27 27 27 27 27 27 27 28 28 28 27 27 28 28 28 28 28 27
26 25 25 26 26 26 26 27 27 27 28 28 28 27 27 27 27 27 27 27 27 27 28 28 28 28 27 28 28 28 28 28 28 29 29 29 28 28
28 27 27 27 27 28 28 28 28 28 28 28 28 28 28 28 28 28 28 28 28 28 28 28 28 28 28 28 27 28 28 28 29 29 29 29 29 29
28 29 29 30 29 30 30 30 30 30 29 29 29 29 29 29 29 29 29 29 29 29 29 28 28 28 28 28 27 27 28 27 28 28 28 29 28 28
30 31 31 30 30 31 31 31 30 30 30 31 31 30 30 29 30 30 30 30 29 29 29 29 29 28 28 28 29 28 28 27 27 27 27 27 27 27
32 33 32 31 31 30 31 31 32 31 32 32 31 31 31 30 30 30 30 30 29 30 30 30 30 29 29 30 30 29 28 28 27 27 27 27 27 27
33 33 33 33 31 31 31 31 32 32 32 32 32 32 32 32 32 31 30 30 29 29 30 30 30 30 29 30 29 29 28 28 28 28 28 27 27 26
33 33 33 32 32 31 31 32 32 32 32 32 32 33 32 31 31 30 30 30 30 30 30 29 29 30 30 30 29 29 28 28 28 29 29 28 27 27
33 32 32 31 31 32 32 32 32 31 31 32 32 32 32 31 31 30 30 31 31 31 30 30 30 30 30 30 30 29 29 29 30 30 29 29 28 27
33 33 32 32 32 32 32 32 32 32 32 32 32 32 32 32 32 31 31 32 32 31 30 30 30 30 30 29 29 29 30 30 30 29 29 28 28 28
33 32 32 32 32 32 32 32 33 33 33 33 33 33 33 32 32 32 32 31 31 31 30 30 30 31 31 30 29 29 29 29 29 29 29 29 28 27
33 33 34 33 33 33 33 33 33 34 34 33 33 33 33 33 32 32 32 31 31 30 30 30 30 31 30 29 29 29 29 29 29 28 28 28 27 26
34 34 34 34 34 34 34 34 34 34 34 33 33 33 34 33 32 32 32 32 32 31 30 31 31 30 30 29 29 29 29 28 28 28 28 27 27 27
Wind_Direction
321 319 317 319 320 320 321 319 317 316 313 311 311 311 307 306 306 306 307 307 306 307 308 308 309 310 308 307 302 298 296 295 294 294 296 298 298 297
322 321 321 319 318 318 320 321 318 316 315 313 309 306 304 303 304 305 305 305 305 303 303 305 305 308 308 305 302 300 298 297 298 298 297 297 298 297
326 322 321 320 319 319 319 319 316 315 314 313 309 305 304 303 304 305 305 305 305 303 303 304 304 305 306 305 304 302 300 299 298 297 298 297 297 295
326 323 320 319 318 317 317 317 315 314 313 313 311 307 305 304 305 305 305 305 303 301 301 301 300 300 300 301 301 302 301 300 299 298 298 298 297 296
326 324 320 316 314 314 314 313 311 311 310 309 309 307 306 305 304 304 303 303 303 301 301 300 298 298 300 299 300 301 300 299 299 300 301 299 298 296
320 321 319 314 310 310 310 309 309 308 307 306 306 304 303 302 302 302 302 302 302 301 300 300 299 299 298 298 299 299 299 298 299 300 301 300 300 299
318 318 318 315 308 308 310 310 308 307 306 305 304 302 301 301 302 302 301 300 301 300 300 300 300 300 299 301 302 301 299 299 299 300 301 301 301 300
313 314 314 313 311 311 311 311 311 311 309 307 305 302 300 300 301 301 300 300 301 301 301 301 302 300 300 300 301 301 299 298 298 299 300 301 301 300
311 311 311 311 310 310 311 310 309 309 309 309 308 307 303 302 302 302 301 301 301 301 301 301 301 301 300 300 300 300 300 299 298 298 299 299 300 300
308 308 308 307 307 308 309 309 308 307 308 308 309 309 307 303 302 301 302 301 301 301 300 300 301 300 299 299 300 300 300 300 300 299 299 299 300 300
304 305 305 305 304 304 305 306 305 305 306 307 307 307 307 304 301 300 300 300 300 301 300 300 300 300 300 301 301 301 300 299 298 298 299 298 298 298
301 302 303 303 303 304 304 304 303 301 301 303 304 304 304 302 300 300 299 299 300 300 300 299 300 300 300 300 300 299 299 298 297 297 297 298 297 298
300 301 303 303 303 303 302 302 301 299 299 301 302 302 302 301 299 298 298 298 299 300 301 301 300 300 300 300 299 299 297 297 298 298 298 298 298 298
299 300 301 302 301 302 301 302 301 300 299 298 299 300 300 299 299 298 298 299 298 298 300 300 300 301 302 302 301 300 300 299 298 298 299 299 300 299
297 298 299 299 300 301 301 301 302 300 299 297 298 298 297 297 297 297 297 298 297 296 297 298 299 300 301 302 302 302 301 299 298 298 299 300 300 298
296 296 297 296 298 299 299 300 301 299 298 298 298 298 297 296 297 296 295 297 298 299 298 298 298 298 299 300 301 301 300 298 297 297 299 299 299 298
295 295 295 296 296 297 298 298 299 299 298 298 298 298 297 296 296 296 296 296 297 299 300 300 299 298 297 298 299 298 298 298 297 297 298 298 297 296
295 295 296 295 295 296 297 297 298 298 299 299 299 299 298 297 296 295 295 296 296 296 297 298 298 298 297 298 298 297 296 296 296 297 297 296 294 295
294 295 294 294 294 295 296 297 298 298 298 299 299 298 297 296 295 294 294 295 295 296 296 297 297 298 297 296 297 296 295 294 295 296 296 295 294 294
295 295 294 293 294 295 295 296 296 296 297 297 298 297 295 295 294 293 293 294 295 296 296 296 296 296 297 297 296 296 296 295 296 296 295 294 293 292
294 294 294 294 294 295 296 296 296 296 296 296 296 296 296 294 293 293 293 293 294 295 296 296 295 295 296 296 297 298 297 296 295 295 294 294 293 292
295 295 294 294 294 294 295 296 297 296 296 296 295 295 294 293 293 292 291 292 293 294 295 296 296 296 296 296 296 296 296 296 296 294 294 294 294 294
295 294 294 294 294 294 295 295 295 295 294 295 295 294 293 294 294 293 292 292 293 293 294 295 295 295 295 296 296 296 295 294 293 293 293 292 292 293